Time,TemperatureF,DewpointF,PressureIn,WindDirection,WindDirectionDegrees,WindSpeedMPH,WindSpeedGustMPH,Humidity,HourlyPrecipIn,Conditions,Clouds,dailyrainin,SoftwareType,DateUTC
2017-05-28 00:04:00,61.3,57.0,29.90,SSE,166,0.0,0.0,87,0.00,,,0.00,weatherlink.com 1.10,2017-05-28 04:04:00,
2017-05-28 00:19:00,61.1,58.0,29.90,SSE,166,0.0,0.0,88,0.00,,,0.00,weatherlink.com 1.10,2017-05-28 04:19:00,
2017-05-28 00:34:00,60.8,58.0,29.89,SSE,166,0.0,0.0,89,0.00,,,0.00,weatherlink.com 1.10,2017-05-28 04:34:00,
2017-05-28 00:49:00,60.5,57.0,29.89,SSE,167,0.0,0.0,89,0.00,,,0.00,weatherlink.com 1.10,2017-05-28 04:49:00,
2017-05-28 01:04:00,60.4,58.0,29.89,SSE,166,0.0,0.0,90,0.00,,,0.00,weatherlink.com 1.10,2017-05-28 05:04:00,
2017-05-28 01:19:00,60.3,57.0,29.89,SSE,166,0.0,0.0,90,0.00,,,0.00,weatherlink.com 1.10,2017-05-28 05:19:00,
2017-05-28 01:34:00,60.1,57.0,29.89,SSE,166,0.0,0.0,90,0.00,,,0.00,weatherlink.com 1.10,2017-05-28 05:34:00,
2017-05-28 01:49:00,59.9,57.0,29.90,SSE,166,0.0,0.0,91,0.00,,,0.00,weatherlink.com 1.10,2017-05-28 05:49:00,
2017-05-28 02:04:00,59.8,57.0,29.90,SSE,166,0.0,0.0,91,0.00,,,0.00,weatherlink.com 1.10,2017-05-28 06:04:00,
2017-05-28 02:20:00,59.5,57.0,29.90,SSE,166,0.0,0.0,91,0.00,,,0.00,weatherlink.com 1.10,2017-05-28 06:20:00,
2017-05-28 02:35:00,59.3,57.0,29.90,SSE,166,0.0,0.0,91,0.00,,,0.00,weatherlink.com 1.10,2017-05-28 06:35:00,
2017-05-28 02:50:00,59.4,57.0,29.90,SSE,166,0.0,0.0,92,0.00,,,0.00,weatherlink.com 1.10,2017-05-28 06:50:00,
2017-05-28 03:05:00,59.3,57.0,29.89,SSE,167,0.0,0.0,92,0.00,,,0.00,weatherlink.com 1.10,2017-05-28 07:05:00,
2017-05-28 03:20:00,59.1,57.0,29.89,SSE,167,0.0,0.0,92,0.00,,,0.00,weatherlink.com 1.10,2017-05-28 07:20:00,
2017-05-28 03:35:00,59.0,57.0,29.87,SSE,166,0.0,0.0,93,0.00,,,0.00,weatherlink.com 1.10,2017-05-28 07:35:00,
2017-05-28 03:50:00,58.8,57.0,29.88,SSE,166,0.0,0.0,93,0.00,,,0.00,weatherlink.com 1.10,2017-05-28 07:50:00,
2017-05-28 04:05:00,58.6,57.0,29.88,SSE,167,0.0,0.0,93,0.00,,,0.00,weatherlink.com 1.10,2017-05-28 08:05:00,
2017-05-28 04:20:00,58.6,57.0,29.88,SSE,166,0.0,0.0,93,0.00,,,0.00,weatherlink.com 1.10,2017-05-28 08:20:00,
2017-05-28 04:35:00,58.5,57.0,29.89,SSE,166,0.0,0.0,94,0.00,,,0.00,weatherlink.com 1.10,2017-05-28 08:35:00,
2017-05-28 04:50:00,58.2,57.0,29.90,SSE,166,0.0,0.0,94,0.00,,,0.00,weatherlink.com 1.10,2017-05-28 08:50:00,
2017-05-28 05:05:00,58.2,57.0,29.90,SSE,166,0.0,0.0,94,0.00,,,0.00,weatherlink.com 1.10,2017-05-28 09:05:00,
2017-05-28 05:20:00,58.2,57.0,29.90,SSE,166,0.0,0.0,94,0.00,,,0.00,weatherlink.com 1.10,2017-05-28 09:20:00,
2017-05-28 05:35:00,58.1,56.0,29.91,SSE,166,0.0,0.0,94,0.00,,,0.00,weatherlink.com 1.10,2017-05-28 09:35:00,
2017-05-28 05:50:00,58.2,57.0,29.91,SSE,166,0.0,0.0,94,0.00,,,0.00,weatherlink.com 1.10,2017-05-28 09:50:00,
2017-05-28 06:05:00,58.4,57.0,29.91,SSE,166,0.0,0.0,95,0.00,,,0.00,weatherlink.com 1.10,2017-05-28 10:05:00,
2017-05-28 06:20:00,58.6,57.0,29.92,SSE,167,0.0,0.0,95,0.00,,,0.00,weatherlink.com 1.10,2017-05-28 10:20:00,
2017-05-28 06:35:00,59.0,58.0,29.93,SSE,166,0.0,0.0,95,0.00,,,0.00,weatherlink.com 1.10,2017-05-28 10:35:00,
2017-05-28 06:50:00,59.5,58.0,29.93,SSE,166,0.0,0.0,95,0.00,,,0.00,weatherlink.com 1.10,2017-05-28 10:50:00,
2017-05-28 07:05:00,59.8,58.0,29.94,SSE,166,0.0,0.0,95,0.00,,,0.00,weatherlink.com 1.10,2017-05-28 11:05:00,
2017-05-28 07:20:00,60.4,59.0,29.94,SSE,166,0.0,0.0,94,0.00,,,0.00,weatherlink.com 1.10,2017-05-28 11:20:00,
2017-05-28 07:35:00,61.3,60.0,29.94,SSE,167,0.0,0.0,94,0.00,,,0.00,weatherlink.com 1.10,2017-05-28 11:35:00,
2017-05-28 07:50:00,62.3,60.0,29.93,SE,142,0.0,0.0,92,0.00,,,0.00,weatherlink.com 1.10,2017-05-28 11:50:00,
2017-05-28 08:05:00,64.7,61.0,29.93,South,186,0.0,0.0,86,0.00,,,0.00,weatherlink.com 1.10,2017-05-28 12:05:00,
2017-05-28 08:20:00,66.0,60.0,29.93,SW,215,0.0,2.0,80,0.00,,,0.00,weatherlink.com 1.10,2017-05-28 12:20:00,
2017-05-28 08:35:00,67.1,60.0,29.93,SSW,203,0.0,1.0,78,0.00,,,0.00,weatherlink.com 1.10,2017-05-28 12:35:00,
2017-05-28 08:51:00,68.6,60.0,29.93,SW,215,0.0,1.0,73,0.00,,,0.00,weatherlink.com 1.10,2017-05-28 12:51:00,
2017-05-28 09:05:00,68.7,60.0,29.93,SSE,153,0.0,2.0,74,0.00,,,0.00,weatherlink.com 1.10,2017-05-28 13:05:00,
2017-05-28 09:21:00,69.6,61.0,29.92,SSW,211,0.0,1.0,73,0.00,,,0.00,weatherlink.com 1.10,2017-05-28 13:21:00,
2017-05-28 09:35:00,71.0,61.0,29.92,SW,224,0.0,1.0,71,0.00,,,0.00,weatherlink.com 1.10,2017-05-28 13:35:00,
2017-05-28 09:50:00,70.7,61.0,29.91,SSE,152,0.0,2.0,72,0.00,,,0.00,weatherlink.com 1.10,2017-05-28 13:50:00,
2017-05-28 10:06:00,69.6,60.0,29.91,SW,236,1.0,2.0,72,0.00,,,0.00,weatherlink.com 1.10,2017-05-28 14:06:00,
2017-05-28 10:21:00,69.1,61.0,29.91,SW,224,0.0,1.0,74,0.00,,,0.00,weatherlink.com 1.10,2017-05-28 14:21:00,
2017-05-28 10:36:00,69.5,60.0,29.91,East,99,0.0,1.0,72,0.00,,,0.00,weatherlink.com 1.10,2017-05-28 14:36:00,
2017-05-28 10:51:00,70.3,60.0,29.91,SW,231,0.0,2.0,70,0.00,,,0.00,weatherlink.com 1.10,2017-05-28 14:51:00,
2017-05-28 11:06:00,71.2,61.0,29.92,SSE,150,0.0,1.0,70,0.00,,,0.00,weatherlink.com 1.10,2017-05-28 15:06:00,
2017-05-28 11:21:00,71.4,61.0,29.92,South,173,0.0,1.0,69,0.00,,,0.00,weatherlink.com 1.10,2017-05-28 15:21:00,
2017-05-28 11:36:00,71.2,60.0,29.92,WNW,287,1.0,3.0,67,0.00,,,0.00,weatherlink.com 1.10,2017-05-28 15:36:00,
2017-05-28 11:51:00,71.4,59.0,29.92,ESE,105,0.0,2.0,66,0.00,,,0.00,weatherlink.com 1.10,2017-05-28 15:51:00,
2017-05-28 12:06:00,72.2,59.0,29.92,SE,143,0.0,4.0,64,0.00,,,0.00,weatherlink.com 1.10,2017-05-28 16:06:00,
2017-05-28 12:21:00,73.1,60.0,29.91,SSW,208,0.0,3.0,63,0.00,,,0.00,weatherlink.com 1.10,2017-05-28 16:21:00,
2017-05-28 12:36:00,73.8,59.0,29.91,NNE,28,1.0,5.0,60,0.00,,,0.00,weatherlink.com 1.10,2017-05-28 16:36:00,
2017-05-28 12:51:00,74.2,57.0,29.91,ENE,68,1.0,4.0,56,0.00,,,0.00,weatherlink.com 1.10,2017-05-28 16:51:00,
2017-05-28 13:06:00,74.3,58.0,29.91,SW,222,0.0,3.0,57,0.00,,,0.00,weatherlink.com 1.10,2017-05-28 17:06:00,
2017-05-28 13:21:00,73.4,58.0,29.91,SE,132,0.0,3.0,59,0.00,,,0.00,weatherlink.com 1.10,2017-05-28 17:21:00,
2017-05-28 13:37:00,74.0,59.0,29.91,South,177,0.0,4.0,60,0.00,,,0.00,weatherlink.com 1.10,2017-05-28 17:37:00,
2017-05-28 13:51:00,73.9,60.0,29.91,West,276,0.0,4.0,62,0.00,,,0.00,weatherlink.com 1.10,2017-05-28 17:51:00,
2017-05-28 14:06:00,74.8,60.0,29.90,West,280,2.0,2.0,60,0.00,,,0.00,weatherlink.com 1.10,2017-05-28 18:06:00,
2017-05-28 14:21:00,74.5,59.0,29.90,WSW,245,1.0,2.0,59,0.00,,,0.00,weatherlink.com 1.10,2017-05-28 18:21:00,
2017-05-28 14:36:00,74.0,60.0,29.90,SW,214,2.0,3.0,61,0.00,,,0.00,weatherlink.com 1.10,2017-05-28 18:36:00,
2017-05-28 14:51:00,74.0,60.0,29.90,ESE,105,1.0,2.0,61,0.00,,,0.00,weatherlink.com 1.10,2017-05-28 18:51:00,
2017-05-28 15:06:00,74.0,60.0,29.90,SSW,200,1.0,3.0,62,0.00,,,0.00,weatherlink.com 1.10,2017-05-28 19:06:00,
2017-05-28 15:21:00,73.4,61.0,29.90,East,81,0.0,2.0,65,0.00,,,0.00,weatherlink.com 1.10,2017-05-28 19:21:00,
2017-05-28 15:36:00,73.0,60.0,29.90,WSW,252,1.0,4.0,65,0.00,,,0.00,weatherlink.com 1.10,2017-05-28 19:36:00,
2017-05-28 15:51:00,72.2,58.0,29.90,SW,221,0.0,5.0,62,0.00,,,0.00,weatherlink.com 1.10,2017-05-28 19:51:00,
2017-05-28 16:06:00,72.1,59.0,29.89,ENE,76,0.0,1.0,63,0.00,,,0.00,weatherlink.com 1.10,2017-05-28 20:06:00,
2017-05-28 16:21:00,72.1,59.0,29.89,WSW,257,0.0,1.0,64,0.00,,,0.00,weatherlink.com 1.10,2017-05-28 20:21:00,
2017-05-28 16:36:00,72.2,60.0,29.89,West,264,0.0,1.0,66,0.00,,,0.00,weatherlink.com 1.10,2017-05-28 20:36:00,
2017-05-28 16:51:00,73.0,61.0,29.88,South,191,1.0,9.0,66,0.00,,,0.00,weatherlink.com 1.10,2017-05-28 20:51:00,
2017-05-28 17:06:00,73.6,60.0,29.88,NW,309,0.0,5.0,63,0.00,,,0.00,weatherlink.com 1.10,2017-05-28 21:06:00,
2017-05-28 17:21:00,73.2,60.0,29.88,SSE,150,0.0,8.0,63,0.00,,,0.00,weatherlink.com 1.10,2017-05-28 21:21:00,
2017-05-28 17:36:00,73.0,60.0,29.88,South,170,1.0,3.0,63,0.00,,,0.00,weatherlink.com 1.10,2017-05-28 21:36:00,
2017-05-28 17:51:00,72.4,60.0,29.87,ENE,63,0.0,6.0,65,0.00,,,0.00,weatherlink.com 1.10,2017-05-28 21:51:00,
2017-05-28 18:06:00,72.3,60.0,29.87,WNW,300,1.0,6.0,66,0.00,,,0.00,weatherlink.com 1.10,2017-05-28 22:06:00,
2017-05-28 18:21:00,72.2,61.0,29.88,SW,218,3.0,3.0,67,0.00,,,0.00,weatherlink.com 1.10,2017-05-28 22:21:00,
2017-05-28 18:36:00,71.8,59.0,29.88,West,278,1.0,3.0,65,0.00,,,0.00,weatherlink.com 1.10,2017-05-28 22:36:00,
2017-05-28 18:51:00,71.6,60.0,29.88,NW,311,0.0,0.0,68,0.00,,,0.00,weatherlink.com 1.10,2017-05-28 22:51:00,
2017-05-28 19:06:00,71.2,61.0,29.88,North,8,0.0,0.0,69,0.00,,,0.00,weatherlink.com 1.10,2017-05-28 23:06:00,
2017-05-28 19:21:00,70.8,60.0,29.88,SSW,212,0.0,1.0,69,0.00,,,0.00,weatherlink.com 1.10,2017-05-28 23:21:00,
2017-05-28 19:36:00,70.1,60.0,29.88,North,10,2.0,6.0,70,0.00,,,0.00,weatherlink.com 1.10,2017-05-28 23:36:00,
2017-05-28 19:51:00,69.4,60.0,29.88,North,352,1.0,7.0,72,0.00,,,0.00,weatherlink.com 1.10,2017-05-28 23:51:00,
2017-05-28 20:06:00,68.8,59.0,29.88,WNW,297,0.0,4.0,72,0.00,,,0.00,weatherlink.com 1.10,2017-05-29 00:06:00,
2017-05-28 20:21:00,68.3,59.0,29.88,East,96,2.0,3.0,73,0.00,,,0.00,weatherlink.com 1.10,2017-05-29 00:21:00,
2017-05-28 20:36:00,67.8,59.0,29.88,SE,136,0.0,3.0,74,0.00,,,0.00,weatherlink.com 1.10,2017-05-29 00:36:00,
2017-05-28 20:51:00,67.4,59.0,29.89,WSW,239,1.0,4.0,75,0.00,,,0.00,weatherlink.com 1.10,2017-05-29 00:51:00,
2017-05-28 21:06:00,67.1,59.0,29.89,SW,225,2.0,6.0,75,0.00,,,0.00,weatherlink.com 1.10,2017-05-29 01:06:00,
2017-05-28 21:21:00,66.9,59.0,29.89,WNW,295,2.0,6.0,75,0.00,,,0.00,weatherlink.com 1.10,2017-05-29 01:21:00,
2017-05-28 21:36:00,66.6,58.0,29.90,NW,306,2.0,4.0,75,0.00,,,0.00,weatherlink.com 1.10,2017-05-29 01:36:00,
2017-05-28 21:51:00,66.3,58.0,29.90,NNW,345,2.0,4.0,74,0.00,,,0.00,weatherlink.com 1.10,2017-05-29 01:51:00,
2017-05-28 22:06:00,66.0,58.0,29.91,NW,312,2.0,5.0,74,0.00,,,0.00,weatherlink.com 1.10,2017-05-29 02:06:00,
2017-05-28 22:21:00,65.6,58.0,29.90,West,271,0.0,4.0,75,0.00,,,0.00,weatherlink.com 1.10,2017-05-29 02:21:00,
2017-05-28 22:36:00,64.9,57.0,29.90,NE,53,2.0,5.0,75,0.00,,,0.00,weatherlink.com 1.10,2017-05-29 02:36:00,
2017-05-28 22:51:00,64.3,56.0,29.90,NE,41,2.0,6.0,74,0.00,,,0.00,weatherlink.com 1.10,2017-05-29 02:51:00,